Location: Houhaj�rvi
(61.2833°N, 23.0000°E)
Time: 06:46:51
(UTC+00:00)

SJ 16-02 - Pass Details

Date: 27 February 2020
Orbit: 607 x 616 km, 75.0° (Epoch: 09 April)

Event Time Altitude Azimuth Distance (km) Brightness Sun altitude
Rises 17:18:54 0° 327° (NNW) 2,897 5.4 -11.9°
Reaches altitude 10° 17:21:13 10° 322° (NW) 1,986 4.6 -12.2°
Maximum altitude 17:25:27 47° 249° (WSW) 821 2.4 -12.7°
Drops below altitude 10° 17:29:40 10° 176° (S) 1,967 3.8 -13.2°
Sets 17:31:57 0° 170° (S) 2,866 4.6 -13.4°
